Location: Newark
(53.4333°N, 36.0000°E)
Time: 05:46:55
(UTC+00:00)

ISS - Pass Details

Date: 25 September 2019
Orbit: 411 x 421 km, 51.6° (Epoch: 16 October)

Event Time Altitude Azimuth Distance (km) Brightness Sun altitude
Rises 17:01:40 0° 249° (WSW) 2,341 0.9 -14.5°
Reaches altitude 10° 17:03:46 10° 244° (WSW) 1,480 -0.3 -14.8°
Maximum altitude 17:07:01 53° 168° (SSE) 516 -3.6 -15.3°
Enters shadow 17:07:58 37° 114° (ESE) 658 -3.3 -15.4°
